Weather in Kinshasa

Democratic Republic of the Congo     4°18′36″S   15°17′22″E
temp.,
°C
wind,
m/s
gust,
m/s
humid.,
%
clouds,
%
prec.,
mm/h
press.,
hPa
HPBL,
m
26 june, sun
sun2601:00+23wsw23829 0.0 1012202
04:00+22w12854 0.0 1012159
07:00+22sw01825 0.0 1014230
10:00+29s12545 0.0 1014806
13:00+34ese133160 0.0 10101883
16:00+35w24275 0.0 10082348
19:00+30wnw2435100 0.0 1009146
22:00+28s1239100 0.0 101199
27 june, mon
mon2701:00+26w1142100 0.0 101160
04:00+24wsw12438 0.0 101193
07:00+24ssw11475 0.0 1013136
10:00+30wsw12390 0.0 1014870
13:00+36ssw1226100 0.0 10111811
16:00+35wsw02235 0.0 10082591
19:00+31nw22306 0.0 101072
22:00+28ssw23355 0.0 1012122
28 june, tue
tue2801:00+26wsw36450 0.0 1012316
04:00+23w24625 0.0 1012256
07:00+23w23665 0.0 1014305
10:00+29ssw23445 0.0 1014929
13:00+34s232721 0.0 10111641
16:00+35w122412 0.0 10082154
19:00+30nw243272 0.0 1010137
22:00+28ssw2437100 0.0 1011147
29 june, wed
wed2901:00+26wsw23448 0.0 1011146
04:00+24wsw2352100 0.0 1012193
07:00+23sw12552 0.0 1014253
10:00+29sw223786 0.0 1014800
13:00+35s122584 0.0 10101623
16:00+35n112285 0.0 10082270
19:00+30nnw232942 0.0 1009109
22:00+28w23375 0.0 1011126
30 june, thu
thu3001:00+26wsw24445 0.0 1012218
04:00+23sw35590 0.0 1013327
07:00+22wsw25665 0.0 1014430
10:00+27wsw344817 0.0 10141011
13:00+33wsw22335 0.0 10111724
16:00+34ssw012976 0.0 10092586
19:00+30w24385 0.0 1010243
22:00+27w244774 0.0 1012168